Regional Weather Roundup
Issued by NWS

Home | Current Version | Previous Version | Graphics & Text | Print | Product List | Glossary On
Versions: 1 2 3 4 5 6 7 8 9 10 11 12 13 14 15 16 17 18 19 20 21 22 23 24 25 26 27 28 29 30 31 32 33 34 35 36 37 38 39 40 41 42 43 44 45 46 47 48 49 50
000
ASUS45 KBOU 310807
RWRCO

WEATHER ROUNDUP FOR COLORADO
NATIONAL WEATHER SERVICE DENVER/BOULDER CO
200 AM MDT SUN AUG 31 2014

NOTE: "FAIR" INDICATES FEW OR NO CLOUDS BELOW 12000 FEET WITH NO
SIGNIFICANT WEATHER AND/OR OBSTRUCTIONS TO VISIBILITY.

COZ001>005-013-030-031-310900-
...NORTHWEST COLORADO...

CITY           SKY/WX    TMP DP  RH WIND       PRES   REMARKS
CRAIG          CLOUDY    58  47  66 N6        29.95F
HAYDEN         CLOUDY    57  43  58 E10       29.97F
MEEKER         CLOUDY    60  46  59 N7        29.96F
MOUNT WERNER   NOT AVBL
STEAMBOAT SPGS CLOUDY    59  43  56 NW8       30.02F
WALDEN         PTCLDY    50  37  62 SE6       30.09F
$$

COZ006>008-011-310900-
...WEST CENTRAL VALLEYS...

CITY           SKY/WX    TMP DP  RH WIND       PRES   REMARKS
GRAND JUNCTION CLOUDY    69  41  36 E14       29.87S
MONTROSE       PTCLDY    63  40  42 SE13      30.00F
EAGLE          CLOUDY    48  46  93 W3        30.08F
RIFLE          MOCLDY    60  48  64 NE3       29.94F
DELTA          PTCLDY    65  44  47 NE7       29.96S
NUCLA          PTCLDY    63  37  39 CALM      30.04S
$$

COZ017>023-064>068-310900-
...SOUTHWEST COLORADO...

CITY           SKY/WX    TMP DP  RH WIND       PRES   REMARKS
DURANGO        CLEAR     54  39  57 N3        30.13R
CORTEZ         CLEAR     52  43  71 E5        30.05F
PAGOSA SPRINGS CLEAR     50  36  60 CALM      30.20F
TELLURIDE      CLEAR     55  34  44 N3        30.26F
WOLF CREEK PAS CLEAR     45  30  57 SW22G29   30.46F
$$

COZ009-010-012-014-032>034-037-058>063-310900-
...CENTRAL COLORADO...

CITY           SKY/WX    TMP DP  RH WIND       PRES   REMARKS
ASPEN          MOCLDY    53  39  59 S6        30.11F
BUENA VISTA    CLEAR     44  39  82 W5        30.16F
COPPER MTN     PTCLDY    52  30  43 S20G26    30.39F
BERTHOUD PASS  FAIR      41  39  93 W21G38    30.41F
COTTONWOOD PAS CLEAR     57  32  38 CALM      30.26F
GUNNISON       PTCLDY    46  37  71 N5        30.20S
KREMMLING      CLOUDY    52  43  71 CALM      30.11F
LEADVILLE      PTCLDY    43  32  65 CALM      30.25F
MONARCH PASS   CLEAR     45  30  57 SW37      30.51F
SALIDA         CLEAR     54  42  63 NW3       30.20F
SUNLIGHT       MOCLDY    46  41  81 SW3       30.29F
WILKERSON PASS NOT AVBL
$$

COZ069>075-310900-
...SAN LUIS VALLEY/SANGRE DE CRISTO MOUNTAINS...

CITY           SKY/WX    TMP DP  RH WIND       PRES   REMARKS
ALAMOSA        CLEAR     46  39  76 S5        30.16F
LA VETA PASS   NOT AVBL
SAGUACHE       NOT AVBL
$$

COZ035-036-038>040-310900-
...NORTHERN COLORADO FRONT RANGE...

CITY           SKY/WX    TMP DP  RH WIND       PRES   REMARKS
DENVER INTL AP PTCLDY    58  47  66 S10       29.94F
DMNS CITY PARK   N/A     60  47  63 SE2       29.92F
AURORA         PTCLDY    56  45  67 VRB1      29.96F
FRONT RANGE AP NOT AVBL
ERIE MUNI ARPT CLEAR     55  52  89 CALM      29.92F
BOULDER MUN AP CLEAR     59  46  63 CALM      29.92F
CENTENNIAL     PTCLDY    59  44  57 SE6       29.96F
BROOMFIELD     CLEAR     61  43  51 CALM      29.94F
FORT COLLINS   MOCLDY    59  52  77 N5        29.94S
LONGMONT       MOCLDY    61  51  69 CALM      29.94F
$$

COZ041-046-047-076>085-087-088-310900-
...PIKES PEAK/PALMER DIVIDE AND SOUTHERN FOOTHILLS...

CITY           SKY/WX    TMP DP  RH WIND       PRES   REMARKS
COLO. SPRINGS  PTCLDY    61  43  51 N7        30.03F
A. F. ACADEMY  CLEAR     49  44  81 N9        30.05F
ELLICOTT       CLEAR     62  43  49 E14       30.00F
FALCON         CLEAR     53  43  70 NW5       30.07F
FORT CARSON    CLEAR     56  43  61 NW5       30.00F
LIMON          CLEAR     52  47  83 CALM      29.96F
MONUMENT HILL  CLEAR     48  41  76 S7        30.06F
TRINIDAD       PTCLDY    66  40  38 SW14      30.01F
$$

COZ042>045-048>051-090-091-310900-
...NORTHEAST COLORADO...

CITY           SKY/WX    TMP DP  RH WIND       PRES   REMARKS
GREELEY ARPT   MOCLDY    57  48  72 NW6       29.92F
AKRON          PTCLDY    63  50  62 SE12      29.90F
BURLINGTON     CLOUDY    66  50  56 SE8       29.89F
WRAY             N/A     68  53  59 NW3       29.85F
STERLING       PTCLDY    63  54  72 W5        29.84F
HOLYOKE        CLOUDY    64  54  68 S8        29.83F
FORT MORGAN    PTCLDY    60  50  69 SW6       29.89F
$$

COZ086-089-092>099-310900-
...SOUTHEAST COLORADO...

CITY           SKY/WX    TMP DP  RH WIND       PRES   REMARKS
PUEBLO         CLEAR     63  43  48 N3        29.93S
LA JUNTA       CLEAR     69  51  52 E9        29.89F
LAMAR          MOCLDY    65  54  67 NE5       29.83F
SPRINGFIELD      N/A     69  51  52 S18       29.92F
$$


USA.gov is the U.S. government's official web portal to all federal, state and local government web resources and services.